Ketchikan, AK

8:45 AM AKST on November 13, 2018 (GMT -0900)
Ketchikan International

Weather History for PAKT - March, 2018

Change the Weather History Date:

Tuesday, March 27, 2018

  Actual Average Record
Temperature  
Mean Temperature 43 °F 39 °F  
Max Temperature 50 °F 46 °F 55 °F (1961)
Min Temperature 36 °F 33 °F 20 °F (1965)
Degree Days  
Heating Degree Days 22 26  
Month to date heating degree days 682 743  
Moisture  
Dew Point 35 °F    
Average Humidity 74    
Maximum Humidity 93    
Minimum Humidity 54    
Precipitation  
Precipitation 0.02 in 0.34 in 1.94 in (1981)
Month to date precipitation 6.19 9.53  
Year to date precipitation 26.62 35.46  
Sea Level Pressure  
Sea Level Pressure 30.08 in    
Wind  
Wind Speed 4 mph (SSW)    
Max Wind Speed 10 mph    
Max Gust Speed 19 mph    
Visibility 10 miles    
Events Rain    
T = Trace of Precipitation, MM = Missing Value Source: NWS Daily Summary

Daily Weather History Graph

Daily Weather History Graph

Search for Another Location

Airport or City:

Astronomy

Mar. 27, 2018 Rise Set
Actual Time 6:30 AM AKDT 7:14 PM AKDT
Civil Twilight 5:53 AM AKDT 7:51 PM AKDT
Nautical Twilight 5:09 AM AKDT 8:36 PM AKDT
Astronomical Twilight 4:21 AM AKDT 9:25 PM AKDT
Moon 2:27 PM AKDT (3/27) 5:17 AM AKDT (3/27)
Length of Visible Light 13h 58m
Length of Day
12h 44m
Waxing Gibbous, 83% of the Moon is Illuminated
Mar 27
Waxing Gibbous
Mar 31
Full
Apr 7
Last Quarter
Apr 15
New
Apr 22
First Quarter

Hourly Weather History & Observations

Time (AKDT) Temp. Windchill Dew Point Humidity Pressure Visibility Wind Dir Wind Speed Gust Speed Precip Events Conditions
12:22 AM 45.0 °F - 39.0 °F 80% 29.70 in 10.0 mi Calm Calm - N/A   Mostly Cloudy
12:53 AM 44.1 °F 42.5 °F 37.0 °F 76% 29.72 in 10.0 mi Variable 3.5 mph - N/A   Mostly Cloudy
1:53 AM 43.0 °F 38.8 °F 36.0 °F 76% 29.76 in 10.0 mi WNW 6.9 mph - 0.00 in   Overcast
2:53 AM 41.0 °F 39.0 °F 37.0 °F 86% 29.80 in 10.0 mi SE 3.5 mph - N/A   Mostly Cloudy
3:15 AM 41.0 °F 38.0 °F 37.0 °F 86% 29.81 in 10.0 mi SE 4.6 mph - 0.00 in Rain Light Rain
3:53 AM 41.0 °F - 37.9 °F 89% 29.84 in 8.0 mi Calm Calm - 0.00 in Rain Light Rain
4:09 AM 42.1 °F - 37.9 °F 85% 29.85 in 8.0 mi Calm Calm - 0.01 in Rain Light Rain
5:00 AM 41.0 °F 37.1 °F 37.0 °F 86% 29.89 in 10.0 mi NW 5.8 mph - N/A   Overcast
5:53 AM 37.9 °F 35.5 °F 35.1 °F 89% 29.92 in 10.0 mi WSW 3.5 mph - N/A   Partly Cloudy
6:04 AM 36.0 °F - 34.0 °F 93% 29.92 in 10.0 mi Calm Calm - N/A   Partly Cloudy
6:53 AM 39.9 °F - 35.1 °F 83% 29.96 in 10.0 mi Calm Calm - N/A   Overcast
7:53 AM 41.0 °F - 34.0 °F 76% 30.00 in 10.0 mi Calm Calm - N/A   Overcast
8:53 AM 43.0 °F - 34.0 °F 71% 30.03 in 10.0 mi Calm Calm - N/A   Mostly Cloudy
9:53 AM 44.6 °F - 35.6 °F 71% 30.06 in 10.0 mi Calm Calm - N/A   Mostly Cloudy
10:53 AM 45.0 °F 41.8 °F 33.1 °F 63% 30.09 in 10.0 mi West 5.8 mph - N/A   Overcast
11:53 AM 46.0 °F 43.1 °F 34.0 °F 63% 30.13 in 10.0 mi Variable 5.8 mph - 0.01 in   Overcast
12:53 PM 48.2 °F - 33.8 °F 58% 30.14 in 10.0 mi Calm Calm - N/A   Overcast
1:24 PM 48.2 °F - 32.0 °F 54% 30.15 in 10.0 mi SSE 8.1 mph - N/A   Overcast
1:53 PM 48.2 °F - 32.0 °F 54% 30.16 in 10.0 mi SSE 8.1 mph - N/A   Scattered Clouds
2:53 PM 46.4 °F 44.3 °F 32.0 °F 57% 30.18 in 10.0 mi Variable 4.6 mph - N/A   Mostly Cloudy
3:53 PM 46.4 °F 45.2 °F 32.0 °F 57% 30.21 in 10.0 mi Variable 3.5 mph - N/A   Mostly Cloudy
4:53 PM 44.6 °F 39.7 °F 33.8 °F 66% 30.23 in 10.0 mi WNW 9.2 mph - N/A Rain Light Rain
5:53 PM 44.6 °F 42.2 °F 32.0 °F 61% 30.25 in 10.0 mi WNW 4.6 mph - N/A   Overcast
6:53 PM 44.1 °F 42.5 °F 33.1 °F 65% 30.27 in 10.0 mi Variable 3.5 mph - N/A   Mostly Cloudy
7:53 PM 42.1 °F - 33.1 °F 70% 30.28 in 10.0 mi Calm Calm - N/A   Overcast
8:53 PM 39.9 °F 35.8 °F 33.1 °F 77% 30.31 in 10.0 mi SSW 5.8 mph - N/A   Mostly Cloudy
9:53 PM 41.0 °F 36.4 °F 35.1 °F 79% 30.32 in 10.0 mi SE 6.9 mph - N/A   Overcast
10:27 PM 39.0 °F 35.7 °F 34.0 °F 82% 30.32 in 10.0 mi SSW 4.6 mph - N/A   Overcast
10:53 PM 37.9 °F 34.4 °F 34.0 °F 86% 30.34 in 10.0 mi SW 4.6 mph - N/A   Overcast
11:38 PM 39.0 °F 36.8 °F 34.0 °F 82% 30.35 in 10.0 mi SE 3.5 mph - N/A   Overcast
11:53 PM 39.0 °F 36.8 °F 35.1 °F 86% 30.35 in 10.0 mi ESE 3.5 mph - N/A   Overcast